Other Public Products
Issued by NWS Grand Forks, ND

Home | Current Version | Previous Version | Graphics & Text | Print | Product List | Glossary On
Versions: 1 2 3 4 5 6 7 8 9 10 11 12 13 14 15 16 17 18 19 20 21 22 23 24 25 26 27 28 29 30 31 32 33 34 35 36 37 38 39 40 41 42 43 44 45 46 47 48 49 50
000
FPUS83 KFGF 242231
OPUFGF
PRAIRIE TO PINES WEATHER ROUNDUP
NATIONAL WEATHER SERVICE EASTERN NORTH DAKOTA/GRAND FORKS ND
500 PM CDT MON JUL 24 2017

 **SATELLITE DATA USED TO AUGMENT SKY COVER AT AUTOMATED STATIONS**
 *****  WEATHER ACROSS EASTERN NORTH DAKOTA  *****

CITY           SKY/WX    TMP DP  RH WIND       PRES   REMARKS
GRAND FORKS    PTSUNNY   82  65  56 S16       29.87F
GRAND FORKS AF FAIR      80  64  57 S21       29.87F
GRAND CITY NWS NOT AVBL
BUXTON           N/A     77  69  76 SE13        N/A
DEVILS LAKE    FAIR      81  65  58 S22G30    29.83F
FARGO          FAIR      77  63  61 SE18G31   29.90F
WAHPETON ARPT  FAIR      73  61  64 SE13G20   29.94S
$$

 *****  WEATHER ACROSS CENTRAL AND WESTERN NORTH DAKOTA  *****

CITY           SKY/WX    TMP DP  RH WIND       PRES   REMARKS
JAMESTOWN      FAIR      83  63  50 SE17      29.87F
BISMARCK       FAIR      90  64  42 SE20G28   29.80F HX  91
MINOT          FAIR      97  56  25 S15G25    29.72F HX  95
MINOT AFB      FAIR      96  57  27 S14G23    29.70F HX  94
GARRISON         N/A     93  63  36 S17G24    29.75S HX  94
WILLISTON      FAIR      92  56  29 N18       29.77R HX  90
DICKINSON      FAIR      96  55  25 S10       29.76F HX  94
HETTINGER      FAIR      94  53  25 CALM      29.82S HX  91
$$

 *****  OTHER OBSERVATIONS NORTHEAST NORTH DAKOTA  *****

CITY           SKY/WX    TMP DP  RH WIND       PRES   REMARKS
WALHALLA       NOT AVBL
LANGDON        FAIR      79  70  73 S22       29.84S
CAVALIER       FAIR      79  66  65 S20G29    29.81F
GRAFTON        FAIR      81  64  57 S17G25    29.87S
CANDO          NOT AVBL
FORT TOTTEN      N/A     82  64  53 S14       29.95S
ROLLA            N/A     81  68  65 S17G24    29.81F
RUGBY          NOT AVBL
 ***** THE ABOVE OBSERVATIONS ARE NON NWS ARE NOT QUALITY
        CONTROLLED AND MAY MIS-REPORT RAIN FOR SNOW...
$$

 *****  OTHER OBSERVATIONS SOUTHEAST NORTH DAKOTA *****

CITY           SKY/WX    TMP DP  RH WIND       PRES   REMARKS
COOPERSTOWN    FAIR      79  64  61 S18       29.89S
VALLEY CITY    FAIR      79  66  65 SE17G23   29.91S
OAKES          NOT AVBL
GWINNER        CLEAR     75  64  69 SE13      29.86F
SHEYENNE NWR     N/A     76  65  68 SE14      29.95S
BUFFALO          N/A     75  58  54 NE15        N/A
WYNDMERE       NOT AVBL
 ***** THE ABOVE OBSERVATIONS ARE NON NWS ARE NOT QUALITY
       CONTROLLED AND MAY MIS-REPORT RAIN FOR SNOW...
$$

  *****  WEATHER ACROSS NORTHERN MINNESOTA  *****

CITY           SKY/WX    TMP DP  RH WIND       PRES   REMARKS
FLAG ISLAND    FAIR      75  64  69 S12       29.91S
WARROAD        FAIR      81  64  57 S12       29.92F
ROSEAU         FAIR      81  64  57 S20       29.90F
HALLOCK        FAIR      79  64  61 S16G29    29.86S
THF RVR FALLS  FAIR      78  62  57 S16       29.94F
HALSTAD        NOT AVBL
FOSSTON        FAIR      75  61  60 S10       29.96S
BAUDETTE       FAIR      80  57  45 S12G21    29.94S
WASKISH        PTSUNNY   79  61  53 SE3       29.96F
CROOKSTON      FAIR      81  64  57 S17       29.90F
$$
  *****  WEATHER ACROSS CENTRAL AND WEST MINNESOTA  *****

CITY           SKY/WX    TMP DP  RH WIND       PRES   REMARKS
BEMIDJI        FAIR      76  59  56 SE14      29.98S
PARK RAPIDS    FAIR      77  59  53 SE18      29.99S
WADENA         FAIR      73  61  64 S8        30.00R
DETROIT LAKES  FAIR      73  61  64 S14       29.98S
MOORHEAD       FAIR      75  63  64 SE13G22   29.92F
FERGUS FALLS   FAIR      73  63  68 S12       29.96S
ELBOW LAKE     FAIR      73  64  73 SE13      29.99R
MORRIS MN      FAIR      79  63  57 S13       29.98R
STAPLES        FAIR      73  59  60 SE7       30.01S
WHEATON        FAIR      75  61  60 SE13      29.96F
$$
  *****  WEATHER ELSEWHERE ACROSS MINNESOTA  *****

CITY           SKY/WX    TMP DP  RH WIND       PRES   REMARKS
DULUTH         FAIR      72  57  59 SE9       30.05S
INTRNTL FALLS  FAIR      78  55  44 S8        29.97F
ELY            FAIR      75  46  35 SW10      30.03F
CLOQUET        FAIR      73  55  53 E9        30.04S
BRAINERD       FAIR      75  60  59 S9        30.02S
HIBBING        FAIR      75  52  44 VRB7      30.03S
ALEXANDRIA     FAIR      75  60  59 SE12      30.00F
SAINT CLOUD    FAIR      77  61  57 S10       30.01F
MINNEAPOLIS    PTSUNNY   78  60  53 SE13      30.03S
$$

  *****  WEATHER ACROSS SOUTH DAKOTA  *****

CITY           SKY/WX    TMP DP  RH WIND       PRES   REMARKS
SIOUX FALLS    FAIR      83  65  54 S20G26    29.93F
BROOKINGS      FAIR      79  63  57 SE15G22   29.96R
WATERTOWN      FAIR      76  64  66 SE7       29.94F
HURON          FAIR      84  66  54 SE21G26   29.87F
SISSETON         N/A     74  67  78 SE13      29.92S
ABERDEEN       LGT RAIN  74  69  85 SE8       29.88F
MITCHELL       FAIR      89  66  46 SE20G28   29.86F HX  91
PIERRE         FAIR      95  63  34 E24G32    29.72F HX  96
MOBRIDGE       FAIR      86  68  54 SE20      29.79F
RAPID CITY     FAIR      98  48  18 E12       29.82F HX  94
$$

  *****  SOME WEATHER IN NEARBY STATES *****

CITY           SKY/WX    TMP DP  RH WIND       PRES   REMARKS
GLASGOW MT     FAIR      84  42  22 W16       29.85S
GREAT FALLS MT FAIR      85  45  24 NE7       29.88F
CHEYENNE WY    FAIR      91  33  12 NE7       30.09S
SCOTTSBLUFF NE FAIR     101  37  11 W7        29.89F HX  95
OMAHA NE       FAIR      87  64  46 SE13      29.96F
DES MOINES IA  FAIR      83  58  42 SE8       30.00S
DAVENPORT IA   PTSUNNY   75  64  68 E9        30.07S
CHICAGO IL     FAIR      73  58  59 NE13      30.05S
EAU CLAIRE WI  FAIR      76  56  49 SE8       30.05F
LA CROSSE WI   FAIR      77  60  55 SE6       30.05F
$$

  *****  SOME NATIONAL WEATHER *****

CITY           SKY/WX    TMP DP  RH WIND       PRES   REMARKS
LA GUARDIA NY  CLOUDY    68  60  75 E9        29.86R
RALEIGH NC     FAIR      91  68  46 W8        29.89S HX  95
ATLANTA GA     CLOUDY    77  71  82 S5        30.01R
NEW ORLEANS LA CLOUDY    80  75  84 CALM      30.02S
OKLAHOMA CITY  FAIR      93  67  42 S8        29.95F HX  96
ALBUQUERQUE NM PTSUNNY   86  51  29 SW10      30.09F
SALT LAKE CITY PTSUNNY   97  45  16 SW6       29.92F HX  93
LOS ANGELES CA PTSUNNY   74  65  73 W10       29.89F
BOISE ID       FAIR      94  46  19 N8        29.85F HX  90
SEATTLE WA     FAIR      79  53  40 NW12      29.99F
$$

*** WEATHER ACROSS MANITOBA...SASKATCHEWAN AND ONTARIO ***
                ***ONTARIO***

CITY           SKY/WX    TMP DP  RH WIND       PRES   REMARKS
GERALDTON      PTSUNNY   81  54  39 E9        29.99S
THUNDER BAY    PTSUNNY   79  55  44 S14       30.01S
SIOUX LOOKOUT  PTSUNNY   79  57  47 SW8G17    29.97S
TORONTO        CLOUDY    66  57  72 N18       29.86R
BIG TROUT LK   PTSUNNY   79  57  47 SW7       29.82F
PICKLE LAKE    PTSUNNY   81  54  39 W15       29.93S
DRYDEN         SUNNY     79  54  41 S15G23    29.96F
KENORA         MOSUNNY   77  59  53 S15G22    29.93F
$$
                *** MANITOBA***

CITY           SKY/WX    TMP DP  RH WIND       PRES   REMARKS
BRANDON        PTSUNNY   84  68  58 S16G23    29.72F
DAUPHIN        SUNNY     84  68  58 W12G17    29.66R
ISLAND LAKE    LGT RAIN  70  64  83 E9        29.72F
PILOT MOUND      N/A     79  66  65 S18G28      N/A
THE PAS        MOSUNNY   81  63  54 W23       29.51S
THOMPSON       CLOUDY    70  63  78 E3        29.66F
WINNIPEG       PTSUNNY   79  66  65 S25G35    29.79S
LYNN LAKE      CLOUDY    64  63  94 NE12      29.63F
CHURCHILL      PTSUNNY   57  46  67 E15       29.83F
GILLAM         LGT RAIN  68  64  88 S5        29.74S
$$
                ***SASKATCHEWAN***

CITY           SKY/WX    TMP DP  RH WIND       PRES   REMARKS
ESTEVAN        MOSUNNY   82  55  39 NW17      29.79R
KINDERSLEY     PTSUNNY   70  41  35 W25G39    29.79S
LLOYDMINSTER   PTSUNNY   55  52  88 NW23G35   29.60R
PRINCE ALBERT  MOSUNNY   68  48  49 W18G26    29.67R
REGINA         MOSUNNY   77  45  31 NW23G30   29.81S
YORKTON        SUNNY     77  57  50 W15G21    29.73R



USA.gov is the U.S. government's official web portal to all federal, state and local government web resources and services.